#timestamp,LO_Frequency,Hit,StdDev 
1698598815.0,286046999.3,N
1698598815.9,286046999.3,N
1698598835.8,286046999.3,N
1698598855.6,286046999.4,N
1698598875.4,286046998.9,N
1698598895.3,286047000.9,N
1698598915.1,286047002.8,N
1698598935.8,286047000.6,N
1698598955.7,286046998.2,N
1698598975.5,286046998.4,N
1698598995.3,286046998.6,N
1698599015.2,286047001.2,N
1698599035.0,286047000.9,N
1698599035.9,286047000.9,N
1698599055.8,286047001.0,N
1698599075.6,286046998.5,N
1698599095.4,286047000.6,N
1698599115.3,286046998.7,N
1698599135.1,286046999.5,N
1698599155.8,286046999.2,N
1698599175.7,286046998.9,N
1698599195.5,286046997.1,N
1698599215.4,286046997.4,N
1698599235.2,286046999.6,N
1698599255.0,286046999.1,N
1698599256.0,286046999.1,N
1698599275.8,286046999.3,N
1698599295.6,286046999.4,N
1698599315.5,286046998.8,N
1698599335.3,286046998.9,N
1698599355.2,286046999.0,N
1698599375.9,286046999.4,N
1698599395.7,286046998.9,N
1698599415.6,286046998.5,N
1698599435.4,286046998.2,N
1698599455.2,286046996.5,N
1698599475.1,286046996.7,N
1698599476.0,286046996.7,N
1698599495.8,286046996.7,N
1698599515.7,286046996.6,N
1698599535.5,286046997.4,N
1698599555.3,286046997.8,N
1698599575.2,286046997.3,N
1698599595.0,286046995.0,Y
1698599595.9,286046995.0,P
1698599615.8,286046999.5,N
1698599635.6,286046999.1,N
1698599655.4,286046996.5,N
1698599675.3,286046999.2,N
1698599695.1,286046996.9,N
1698599715.9,286046999.2,N
1698599735.7,286046998.8,N
1698599755.5,286047001.2,N
1698599775.4,286046998.7,N
1698599795.2,286047001.0,N
1698599815.0,286047001.2,N
1698599816.0,286047001.2,N
1698599835.8,286046998.6,N
1698599855.6,286046998.2,N
1698599875.5,286046998.2,N
1698599895.3,286046998.2,N
1698599915.1,286047000.6,N
1698599935.9,286047002.7,N
1698599955.7,286047000.4,N
1698599975.6,286047001.9,N
1698599995.4,286047002.7,N
1698600015.2,286047000.7,N
1698600035.1,286046998.1,N
1698600036.0,286046998.1,N
1698600055.8,286047000.8,N
1698600075.7,286047002.4,N
1698600095.5,286047002.1,N
1698600115.3,286047001.4,N
1698600135.2,286047001.4,N
1698600155.0,286047001.6,N
1698600155.9,286047001.6,N
1698600175.7,286047001.8,N
1698600195.6,286047004.2,N
1698600215.4,286047003.7,N
1698600235.3,286047003.1,N
1698600255.1,286047006.0,Y
1698600275.8,286047003.1,P
1698600295.7,286047003.7,P
1698600315.5,286047001.6,N
1698600335.4,286047003.1,N
1698600355.2,286047005.9,Y
1698600375.0,286047002.6,P
1698600375.9,286047002.6,P
1698600395.8,286047002.1,P
1698600415.6,286046999.9,N
1698600435.5,286047000.8,N
1698600455.3,286046998.1,N
1698600475.1,286047000.8,N
1698600495.9,286047000.0,N
1698600515.7,286047002.8,N
1698600535.5,286047001.5,N
1698600555.4,286047002.0,N
1698600575.2,286047001.4,N
1698600595.1,286047001.8,N
1698600596.0,286047001.8,N
1698600615.8,286047003.8,Y
1698600635.6,286047000.1,P
1698600655.5,286047002.4,P
1698600675.3,286047001.5,N
1698600695.1,286047002.2,N
1698600715.9,286047000.0,N
1698600735.7,286047002.8,N
1698600755.6,286046999.9,N
1698600775.4,286046999.9,N
1698600795.2,286047002.8,N
1698600815.1,286047001.6,N
1698600816.0,286047001.6,N
1698600835.8,286047002.4,N
1698600855.6,286047002.4,N
1698600875.5,286047001.3,N
1698600895.3,286047002.9,N
1698600915.2,286047003.4,Y
1698600935.9,286047004.4,P
1698600955.7,286047001.9,N
1698600975.6,286047004.3,P
1698600995.4,286047004.1,Y
1698601015.3,286047000.2,P
1698601035.1,286046999.8,N
1698601036.0,286046999.8,N
1698601055.8,286047001.0,N
1698601075.7,286046998.9,N
1698601095.5,286047001.0,N
1698601115.3,286047001.2,N
1698601135.2,286047000.5,N
1698601155.0,286047000.7,N
1698601155.9,286047000.7,N
1698601175.8,286047000.1,N
1698601195.6,286047002.5,N
1698601215.4,286047000.5,N
1698601235.3,286046998.1,N
1698601255.1,286047000.1,N
1698601275.8,286047001.2,N
1698601295.7,286046998.1,N
1698601315.5,286047000.5,N
1698601335.4,286047000.4,N
1698601355.2,286047002.7,N
1698601375.0,286047002.1,N
1698601375.9,286047002.1,N
1698601395.8,286047002.5,N
1698601415.6,286047002.6,N
1698601435.5,286047002.0,N
1698601455.3,286047000.0,N
1698601475.1,286047000.1,N
1698601495.9,286047000.4,N
1698601515.7,286047000.4,N
1698601535.5,286047000.8,N
1698601555.4,286047001.0,N
1698601575.2,286046999.7,N
1698601595.1,286047000.9,N
1698601596.0,286047000.9,N
1698601615.8,286047000.4,N
1698601635.6,286047001.9,N
1698601655.5,286047002.3,N
1698601675.3,286047002.1,N
1698601695.1,286047002.6,N
1698601715.9,286047001.6,N
1698601735.7,286047004.0,Y
1698601755.6,286046999.9,P
1698601775.4,286047000.5,N
1698601795.2,286046998.5,P
1698601815.1,286047000.9,N
1698601816.0,286047000.9,N
1698601835.8,286046998.1,N
1698601855.6,286047000.7,N
1698601875.5,286046998.2,N
1698601895.3,286047000.5,N
1698601915.2,286047000.6,N
1698601935.9,286047000.2,N
1698601955.7,286047002.7,N
1698601975.6,286047002.0,N
1698601995.4,286047002.8,N
1698602015.2,286047001.4,N
1698602035.1,286047001.9,N
1698602036.0,286047001.9,N
1698602055.8,286047001.6,N
1698602075.7,286047002.5,N
1698602095.5,286047002.1,N
1698602115.3,286047002.8,N
1698602135.2,286046999.8,N
1698602155.0,286047000.1,N
1698602155.9,286047000.1,N
1698602175.8,286046999.8,N
1698602195.6,286047002.3,N
1698602215.4,286047001.5,N
1698602235.3,286047001.8,N
1698602255.1,286047000.4,N
1698602275.8,286047000.9,N
1698602295.7,286047000.8,N
1698602315.5,286047000.0,N
1698602335.4,286047000.2,N
1698602355.2,286047000.0,N
1698602375.0,286047000.5,N
1698602375.9,286047000.5,N
1698602395.8,286047002.3,N
